Montana Department of Transportation

Main Content

Accidents and Incidents Report

Hourly Weather Roundup

ASUS45 KTFX 200210

RWRMT 

MONTANA REGIONAL WEATHER ROUNDUP

NATIONAL WEATHER SERVICE GREAT FALLS MT

700 PM MST TUE FEB 19 2019



NOTE: "FAIR" INDICATES FEW OR NO CLOUDS BELOW 12000 FEET WITH NO

SIGNIFICANT WEATHER AND/OR OBSTRUCTIONS TO VISIBILITY.



MTZ001.007-043-200300-

WEST OF THE DIVIDE

  

CITY           SKY/WX    TMP DP  RH WIND       PRES   REMARKS

KALISPELL      LGT SNOW  17  14  88 CALM      29.82F FOG              

MISSOULA       LGT SNOW  18  13  80 W3        29.83F                  

BUTTE          CLOUDY    15   4  61 CALM      29.67F                  

MULLAN PASS    LGT SNOW  13   8  81 CALM      29.65                   

ANACONDA         N/A     10   1  67 SE3       29.72F                  

DEER LODGE       N/A     12   5  73 CALM      29.75F                  

HAMILTON       CLOUDY    18  12  79 NE5       29.81F                  

PLAINS           N/A     19   9  65 CALM      29.87F                  

RONAN            N/A     14  12  92 E7        29.82F FOG     WCI   4  

--------------------------------



MTZ008-052.055-200300-

SOUTHWEST MONTANA

  

CITY           SKY/WX    TMP DP  RH WIND       PRES   REMARKS

BOZEMAN        CLOUDY    13   4  67 CALM      29.74F                  

DILLON         MOCLDY     7   2  80 CALM      29.71F                  

ENNIS          CLOUDY    16   5  62 S14G21    29.76S WCI   1          

W YELLOWSTONE  CLOUDY     5   0  78 SW9G20    29.69S WCI  -9          

THREE FORKS      N/A     14   4  64 CALM      29.77F                  

TWIN BRIDGES     N/A     15   3  59 E2        29.76S                  

--------------------------------



MTZ009-010-012-014-046-048-049-054-200300-

EAST SLOPES AND CENTRAL MONTANA

  

CITY           SKY/WX    TMP DP  RH WIND       PRES   REMARKS

CUT BANK       FAIR      12   5  73 W20       29.64F WCI  -6          

GREAT FALLS    FAIR       7   1  76 S12       29.67F WCI  -8          

HELENA         FAIR       9   0  67 W5        29.74F                  

AUGUSTA        FAIR      17   7  67 W23G29    29.61F WCI  -1          

BOWMANS CRNR   FAIR      11   4  71 S7        29.63S WCI   0          

CHOTEAU          N/A      9   0  66 NW13      29.63F WCI  -7          

FAIRFIELD      FAIR      13   1  60 CALM      29.64S                  

POWER          FAIR       4  -2  76 SW5       29.66S                  

RAYNESFORD     FAIR      17   5  59 S18       29.67F WCI   1          

WHITE SULPHUR    N/A      9  -2  61 S15       29.66F WCI  -8          

--------------------------------



MTZ011-013-016-021-045-047-050-051-200300-

NORTH CENTRAL MONTANA

  

CITY           SKY/WX    TMP DP  RH WIND       PRES   REMARKS

HAVRE          FAIR      -9 -15  75 NE5       29.78S                  

LEWISTOWN      FAIR       4  -3  73 SE5       29.68S                  

N BAR RANCH    FAIR       5  -4  66 W6        29.68F WCI  -6          

CHINOOK          N/A     -8 -11  84 E3        29.80F                  

ROY            FAIR       9  -3  60 CALM      29.70F                  

STANFORD       FAIR       5  -4  65 W3        29.66S                  

--------------------------------



MTZ017.020-022.027-061-062-200300-

NORTHEAST MONTANA

  

CITY           SKY/WX    TMP DP  RH WIND       PRES   REMARKS

GLASGOW        FAIR      -5 -13  68 E13       29.83F WCI -24          

GLENDIVE       FAIR      -5 -10  79 W3        29.90F                  

JORDAN           N/A      1  -5  75 CALM      29.81F                  

MALTA          CLEAR    -13 -17  84 E6        29.82S WCI -27          

SIDNEY         FAIR      -2  -8  76 W3        29.94F                  

WOLF POINT     FAIR      -6 -10  83 CALM      29.90F                  

POPLAR           N/A      0  -8  71 CALM      29.90F                  

SCOBEY           N/A     -4 -14  62 SE5       29.82F                  

--------------------------------



MTZ028.42-056.058-200300-

SOUTHCENTRAL AND SOUTHEAST MONTANA

  

CITY           SKY/WX    TMP DP  RH WIND       PRES   REMARKS

BAKER          MOCLDY    -1  -4  87 SE7       29.86F WCI -14BILLINGS       FAIR      17   5  59 SW8       29.76F WCI   7          

LIVINGSTON     CLOUDY    15   2  56 NW15      29.70F WCI   0          

MILES CITY     FAIR      -7 -10  87 NE6       29.87F WCI -20          

BIG TIMBER     CLOUDY    14   1  57 SW16      29.70F WCI  -2          

FORSYTH          N/A      0  -8  71 E3        29.86S                  

HARLOWTON      FAIR       9  -3  57 W3        29.69F                  

LAUREL           N/A     14   5  67 W6        29.78F WCI   5          

--------------------------------



REGIONAL REPORTS...DAKOTAS

  

CITY           SKY/WX    TMP DP  RH WIND       PRES   REMARKS

WILLISTON      FAIR       1  -5  75 CALM      29.94F                  

MINOT          FAIR       5  -1  76 S10       29.98F WCI -10          

DICKINSON      MOCLDY    -2  -8  76 S12       29.91F WCI -20          

BEACH          MOCLDY     0  -4  85 SE3       29.89S                  

CROSBY         FAIR      -2  -6  84 S12       29.92F WCI -20          

TIOGA          FAIR       0  -4  85 S12       29.92F WCI -18          

WATFORD CITY   FAIR       0  -4  85 SE7       29.94F WCI -13          

BISMARCK       CLOUDY     3  -1  83 E3        30.09F                  

GRAND FORKS    FAIR      -1  -5  82 S16       30.23F WCI -21          

FARGO          FAIR       8   4  83 S13       30.26S WCI  -8          

BUFFALO SD       N/A      1  -6  72 E6        29.86S WCI -10          

RAPID CITY     CLOUDY    17  14  88 SE12      29.84F WCI   4          

--------------------------------



REGIONAL REPORTS...WYOMING/IDAHO/WASHINGTON

  

CITY           SKY/WX    TMP DP  RH WIND       PRES   REMARKS

GILLETTE       FAIR       8   4  83 S12       29.73F WCI  -7          

SHERIDAN       FAIR       3  -4  72 CALM      29.77S                  

BUFFALO WY     FAIR       9   0  67 NW6       29.70F WCI  -1          

CODY           FAIR      11   5  77 VRB3      29.71S                  

YELLOWSTONE LA   N/A     -4  -8  83 CALM      29.67S                  

IDAHO FALLS    LGT SNOW  16  11  80 SW8       29.86F WCI   5          

SALMON         CLOUDY    23  14  68 SW9       29.82F WCI  13          

BOISE          CLOUDY    30  24  78 SE6       29.93F WCI  24          

SPOKANE        LGT SNOW  23  19  85 NE3       29.87F FOG              

--------------------------------



REGIONAL REPORTS...ALBERTA

  

CITY           SKY/WX    TMP DP  RH WIND       PRES   REMARKS

CALGARY        CLOUDY    25  18  74 NW6       29.61R WCI  18          

CARDSTON         N/A     18   5  57 SW9         N/A  WCI   6          

EDMONTON       MOCLDY    19  18  93 SW5       29.59S                  

FORT MCMURRAY  LGT SNOW  18  16  93 E5        29.63R                  

HIGH LEVEL     LGT SNOW  10   7  85 N12       29.72R WCI  -4          

LETHBRIDGE     MOCLDY    16   7  67 SW14G20   29.61S WCI   1          

LLOYDMINSTER   CLOUDY    12   7  79 SW9       29.58F WCI   0          

MEDICINE HAT   CLEAR      7  -2  66 SW9       29.69R WCI  -7          

PEACE RIVER    CLOUDY    21  18  86 W7        29.61R WCI  13          

PINCHER CREEK  CLOUDY    18  10  73 W29G36    29.61R WCI  -2          

RAYMOND          N/A     16   7  67 SW13        N/A  WCI   2          

WATERTON GATE    N/A     18   7  62 SW28G44     N/A  WCI  -1          

--------------------------------



REGIONAL REPORTS...SASKATCHEWAN

  

CITY           SKY/WX    TMP DP  RH WIND       PRES   REMARKS

CORONACH         N/A     -6 -11  77 SE2         N/A                   

CYPRESS HILLS    N/A      7  -4  61 SW6         N/A  WCI  -3          

ESTEVAN        CLEAR     -2  -8  78 S3        29.91F                  

MOOSE JAW        N/A      9   0  66 SW23G29     N/A  WCI -12          

PRINCE ALBERT  FLURRIES   5  -2  72 SW7       29.73S WCI  -7          

REGINA         CLEAR      1  -6  71 S17       29.82F WCI -19          

ROCKGLEN         N/A     -4  -8  84 SW8         N/A  WCI -19          

SASKATOON      PTCLDY     1  -4  78 S9        29.73F WCI -14          

SWIFT CURRENT  CLEAR      1  -6  71 SW15      29.69F WCI -18          

VAL MARIE        N/A    -17 -22  76 SE2         N/A                   

--------------------------------